RUK693 EGCC-LOWW

Flight info

Callsign RUK693
Flight time 2h 0m
Altitude 37000
Route DESIG L603 LAMSO DCT EVELI DCT RKN DCT KUMER DCT GALMA DCT TALEG L620 PIKIB DCT OMELO DCT EVIKU DCT BITSI DCT MIKOV MIKOV8W
Aircraft B738/M-SDE2E3FGHIRWXY/LB1

Departure

Time 2026-05-06 19:52
Airport Manchester Airport (EGCC)

Arrival

Time 2026-05-06 21:53
Airport Vienna International Airport (LOWW)
Time Latitude Longitude Altitude Speed Heading
2026-05-06 19:11 53.36552 -2.27937 254 ft 0 kts 45°
2026-05-06 19:26 53.36552 -2.27938 254 ft 0 kts 45°
2026-05-06 19:36 53.36551 -2.27939 254 ft 2 kts 45°
2026-05-06 19:36 53.36534 -2.27971 227 ft 4 kts 54°
2026-05-06 19:37 53.36520 -2.28009 254 ft 4 kts 73°
2026-05-06 19:37 53.36519 -2.28048 254 ft 4 kts 123°
2026-05-06 19:37 53.36522 -2.28057 254 ft 1 kts 135°
2026-05-06 19:43 53.36518 -2.28050 254 ft 2 kts 135°
2026-05-06 19:43 53.36484 -2.28014 254 ft 7 kts 171°
2026-05-06 19:43 53.36443 -2.28052 254 ft 7 kts 221°
2026-05-06 19:43 53.36407 -2.28104 254 ft 7 kts 221°
2026-05-06 19:44 53.36372 -2.28158 254 ft 8 kts 224°
2026-05-06 19:44 53.36309 -2.28205 254 ft 12 kts 166°
2026-05-06 19:44 53.36241 -2.28133 254 ft 12 kts 165°
2026-05-06 19:44 53.36162 -2.28146 254 ft 12 kts 159°
2026-05-06 19:45 53.36099 -2.28059 254 ft 12 kts 136°
2026-05-06 19:45 53.36040 -2.27971 254 ft 11 kts 139°
2026-05-06 19:45 53.35980 -2.27887 254 ft 11 kts 143°
2026-05-06 19:45 53.35910 -2.27850 254 ft 11 kts 179°
2026-05-06 19:46 53.35823 -2.27862 250 ft 15 kts 186°
2026-05-06 19:46 53.35705 -2.27882 244 ft 21 kts 185°
2026-05-06 19:46 53.35578 -2.27996 237 ft 23 kts 230°
2026-05-06 19:46 53.35445 -2.28150 234 ft 23 kts 195°
2026-05-06 19:47 53.35294 -2.28223 234 ft 22 kts 210°
2026-05-06 19:47 53.35184 -2.28404 228 ft 23 kts 231°
2026-05-06 19:47 53.35082 -2.28610 228 ft 23 kts 230°
2026-05-06 19:47 53.34978 -2.28805 225 ft 22 kts 226°
2026-05-06 19:48 53.34872 -2.28990 220 ft 23 kts 226°
2026-05-06 19:48 53.34768 -2.29195 213 ft 23 kts 231°
2026-05-06 19:48 53.34696 -2.29314 211 ft 7 kts 209°
2026-05-06 19:48 53.34631 -2.29341 216 ft 12 kts 177°
2026-05-06 19:49 53.34556 -2.29297 216 ft 12 kts 137°
2026-05-06 19:49 53.34562 -2.29178 218 ft 11 kts 55°
2026-05-06 19:49 53.34604 -2.29089 219 ft 3 kts 50°
2026-05-06 19:49 53.34617 -2.29062 213 ft 3 kts 51°
2026-05-06 19:50 53.34630 -2.29035 214 ft 3 kts 51°
2026-05-06 19:50 53.34641 -2.29014 215 ft 0 kts 51°
2026-05-06 19:50 53.34643 -2.29009 216 ft 3 kts 51°
2026-05-06 19:50 53.34675 -2.28944 223 ft 13 kts 51°
2026-05-06 19:51 53.34743 -2.28802 222 ft 16 kts 51°
2026-05-06 19:51 53.34783 -2.28720 226 ft 0 kts 51°
2026-05-06 19:51 53.34784 -2.28717 226 ft 5 kts 51°
2026-05-06 19:52 53.34954 -2.28364 232 ft 73 kts 51°
2026-05-06 19:52 53.35411 -2.27420 243 ft 133 kts 51°
2026-05-06 19:52 53.36081 -2.26081 498 ft 160 kts 49°
2026-05-06 19:52 53.36862 -2.24635 1058 ft 173 kts 51°
2026-05-06 19:53 53.37641 -2.23114 1876 ft 173 kts 51°
2026-05-06 19:53 53.38454 -2.21577 2590 ft 178 kts 51°
2026-05-06 19:53 53.39284 -2.19972 3292 ft 185 kts 52°
2026-05-06 19:53 53.40126 -2.18346 4058 ft 187 kts 53°
2026-05-06 19:54 53.40931 -2.16528 4547 ft 205 kts 55°
2026-05-06 19:54 53.41784 -2.14451 4753 ft 228 kts 55°
2026-05-06 19:54 53.42745 -2.12180 4937 ft 250 kts 53°
2026-05-06 19:54 53.43828 -2.09726 4958 ft 270 kts 52°
2026-05-06 19:55 53.44953 -2.07264 5280 ft 262 kts 51°
2026-05-06 19:55 53.46092 -2.04813 5849 ft 269 kts 50°
2026-05-06 19:55 53.47253 -2.02330 6388 ft 272 kts 49°
2026-05-06 19:55 53.48412 -1.99857 6873 ft 274 kts 49°
2026-05-06 19:56 53.49606 -1.97348 7382 ft 276 kts 49°
2026-05-06 19:56 53.50815 -1.94826 7893 ft 278 kts 49°
2026-05-06 19:56 53.52006 -1.92256 8402 ft 281 kts 55°
2026-05-06 19:56 53.52755 -1.89193 8826 ft 292 kts 76°
2026-05-06 19:57 53.52653 -1.85741 8868 ft 301 kts 108°
2026-05-06 19:57 53.51893 -1.82500 9729 ft 298 kts 111°
2026-05-06 19:57 53.51151 -1.79246 10474 ft 301 kts 109°
2026-05-06 19:57 53.50445 -1.75859 10726 ft 322 kts 108°
2026-05-06 19:58 53.49733 -1.72156 10897 ft 344 kts 107°
2026-05-06 19:58 53.49017 -1.68203 11134 ft 363 kts 106°
2026-05-06 19:58 53.48294 -1.64106 11785 ft 367 kts 106°
2026-05-06 19:58 53.47566 -1.59967 12433 ft 373 kts 106°
2026-05-06 19:59 53.46825 -1.55780 13098 ft 377 kts 106°
2026-05-06 19:59 53.46062 -1.51533 13823 ft 382 kts 106°
2026-05-06 19:59 53.45289 -1.47249 14499 ft 385 kts 107°
2026-05-06 19:59 53.44510 -1.42944 15218 ft 387 kts 107°
2026-05-06 20:00 53.43723 -1.38597 15901 ft 391 kts 107°
2026-05-06 20:00 53.42928 -1.34204 16559 ft 396 kts 107°
2026-05-06 20:00 53.42122 -1.29772 17224 ft 400 kts 107°
2026-05-06 20:00 53.41315 -1.25293 17887 ft 404 kts 107°
2026-05-06 20:01 53.40522 -1.20763 18509 ft 407 kts 107°
2026-05-06 20:01 53.39704 -1.16189 19079 ft 411 kts 107°
2026-05-06 20:01 53.38874 -1.11655 19642 ft 414 kts 107°
2026-05-06 20:01 53.38021 -1.07037 20210 ft 417 kts 107°
2026-05-06 20:02 53.37157 -1.02373 20767 ft 421 kts 107°
2026-05-06 20:02 53.36286 -0.97668 21302 ft 425 kts 107°
2026-05-06 20:02 53.35408 -0.92929 21826 ft 428 kts 107°
2026-05-06 20:02 53.34522 -0.88152 22348 ft 432 kts 107°
2026-05-06 20:03 53.33627 -0.83337 22863 ft 435 kts 107°
2026-05-06 20:03 53.32723 -0.78481 23360 ft 439 kts 107°
2026-05-06 20:03 53.31844 -0.73770 23794 ft 442 kts 107°
2026-05-06 20:03 53.30922 -0.68851 24218 ft 444 kts 107°
2026-05-06 20:04 53.29993 -0.63912 24654 ft 446 kts 107°
2026-05-06 20:04 53.29058 -0.58957 25080 ft 449 kts 107°
2026-05-06 20:04 53.28127 -0.54035 25495 ft 451 kts 107°
2026-05-06 20:04 53.27178 -0.49025 25872 ft 454 kts 107°
2026-05-06 20:05 53.26221 -0.43986 26256 ft 456 kts 107°
2026-05-06 20:05 53.25264 -0.38926 26634 ft 458 kts 107°
2026-05-06 20:05 53.24302 -0.33837 27005 ft 461 kts 107°
2026-05-06 20:05 53.23334 -0.28730 27380 ft 463 kts 107°
2026-05-06 20:06 53.22351 -0.23600 27731 ft 465 kts 107°
2026-05-06 20:06 53.21356 -0.18451 28080 ft 468 kts 107°
2026-05-06 20:06 53.20354 -0.13273 28422 ft 470 kts 107°
2026-05-06 20:06 53.19361 -0.08149 28755 ft 472 kts 107°
2026-05-06 20:07 53.18349 -0.02939 29067 ft 474 kts 107°
2026-05-06 20:07 53.17332 0.02298 29400 ft 477 kts 108°
2026-05-06 20:07 53.16309 0.07563 29715 ft 478 kts 108°
2026-05-06 20:07 53.15283 0.12835 30158 ft 477 kts 108°
2026-05-06 20:08 53.14261 0.18072 30584 ft 474 kts 108°
2026-05-06 20:08 53.13240 0.23292 30972 ft 473 kts 108°
2026-05-06 20:08 53.12220 0.28497 31296 ft 473 kts 108°
2026-05-06 20:08 53.11196 0.33704 31626 ft 473 kts 108°
2026-05-06 20:09 53.10185 0.38833 31980 ft 472 kts 108°
2026-05-06 20:09 53.09160 0.44017 32349 ft 471 kts 108°
2026-05-06 20:09 53.08135 0.49189 32697 ft 471 kts 108°
2026-05-06 20:09 53.07105 0.54368 32971 ft 472 kts 109°
2026-05-06 20:10 53.06070 0.59559 33178 ft 474 kts 109°
2026-05-06 20:10 53.05032 0.64755 33583 ft 472 kts 109°
2026-05-06 20:10 53.03999 0.69916 33962 ft 470 kts 109°
2026-05-06 20:10 53.02964 0.75072 34205 ft 471 kts 109°
2026-05-06 20:11 53.01937 0.80169 34435 ft 471 kts 109°
2026-05-06 20:11 53.00883 0.85394 34697 ft 471 kts 109°
2026-05-06 20:11 52.99855 0.90477 34902 ft 472 kts 109°
2026-05-06 20:11 52.98807 0.95642 35148 ft 472 kts 109°
2026-05-06 20:12 52.97787 1.00818 35407 ft 471 kts 106°
2026-05-06 20:12 52.97039 1.06116 35599 ft 473 kts 102°
2026-05-06 20:12 52.96422 1.11478 35787 ft 474 kts 101°
2026-05-06 20:12 52.95844 1.16868 36025 ft 474 kts 101°
2026-05-06 20:13 52.95269 1.22239 36281 ft 473 kts 101°
2026-05-06 20:13 52.94680 1.27604 36511 ft 473 kts 101°
2026-05-06 20:13 52.94081 1.32896 36716 ft 473 kts 101°
2026-05-06 20:13 52.93460 1.38253 36930 ft 473 kts 101°
2026-05-06 20:14 52.92829 1.43610 37034 ft 475 kts 102°
2026-05-06 20:14 52.92188 1.49000 37027 ft 478 kts 102°
2026-05-06 20:14 52.90895 1.59785 37028 ft 476 kts 102°
2026-05-06 20:15 52.89607 1.70463 37023 ft 471 kts 102°
2026-05-06 20:15 52.88319 1.81064 37036 ft 469 kts 102°
2026-05-06 20:16 52.87034 1.91560 37030 ft 468 kts 102°
2026-05-06 20:16 52.85767 2.01833 37015 ft 467 kts 102°
2026-05-06 20:17 52.84457 2.12370 37029 ft 468 kts 103°
2026-05-06 20:17 52.83134 2.22931 37025 ft 470 kts 103°
2026-05-06 20:18 52.81806 2.33458 37019 ft 472 kts 103°
2026-05-06 20:18 52.80457 2.44086 37027 ft 474 kts 103°
2026-05-06 20:19 52.79089 2.54748 37016 ft 475 kts 103°
2026-05-06 20:19 52.77703 2.65432 37016 ft 476 kts 103°
2026-05-06 20:20 52.76309 2.76117 37009 ft 476 kts 103°
2026-05-06 20:20 52.74930 2.86727 37012 ft 476 kts 103°
2026-05-06 20:21 52.73559 2.97394 37009 ft 475 kts 104°
2026-05-06 20:21 52.71500 3.07680 37002 ft 471 kts 114°
2026-05-06 20:22 52.69022 3.17684 37013 ft 471 kts 114°
2026-05-06 20:22 52.66611 3.27703 36989 ft 471 kts 113°
2026-05-06 20:23 52.64251 3.37678 36984 ft 471 kts 112°
2026-05-06 20:23 52.62564 3.48097 37007 ft 472 kts 103°
2026-05-06 20:24 52.61208 3.58680 36989 ft 473 kts 103°
2026-05-06 20:24 52.59831 3.69252 37000 ft 473 kts 103°
2026-05-06 20:25 52.58399 3.79820 36997 ft 473 kts 104°
2026-05-06 20:25 52.56946 3.90313 36990 ft 474 kts 104°
2026-05-06 20:26 52.55470 4.00865 36989 ft 474 kts 104°
2026-05-06 20:26 52.53984 4.11419 36992 ft 474 kts 104°
2026-05-06 20:27 52.52491 4.21967 36970 ft 474 kts 104°
2026-05-06 20:27 52.50990 4.32501 36985 ft 473 kts 104°
2026-05-06 20:28 52.49492 4.42941 36975 ft 473 kts 104°
2026-05-06 20:28 52.47975 4.53437 36968 ft 472 kts 104°
2026-05-06 20:29 52.46441 4.63983 36967 ft 472 kts 104°
2026-05-06 20:29 52.44922 4.74360 36968 ft 471 kts 104°
2026-05-06 20:30 52.42610 4.90017 36968 ft 471 kts 104°
2026-05-06 20:31 52.41060 5.00427 36964 ft 470 kts 105°
2026-05-06 20:31 52.39502 5.10818 36960 ft 470 kts 105°
2026-05-06 20:32 52.37947 5.21129 36961 ft 469 kts 105°
2026-05-06 20:32 52.36375 5.31480 36962 ft 469 kts 105°
2026-05-06 20:33 52.34793 5.41832 36965 ft 469 kts 105°
2026-05-06 20:33 52.33204 5.52161 36963 ft 468 kts 105°
2026-05-06 20:34 52.31607 5.62481 36960 ft 468 kts 105°
2026-05-06 20:34 52.30013 5.72713 36937 ft 468 kts 105°
2026-05-06 20:35 52.28400 5.83005 36939 ft 468 kts 105°
2026-05-06 20:35 52.26777 5.93295 36938 ft 468 kts 106°
2026-05-06 20:36 52.25146 6.03568 36939 ft 467 kts 106°
2026-05-06 20:36 52.23507 6.13831 36938 ft 467 kts 106°
2026-05-06 20:37 52.21859 6.24094 36938 ft 467 kts 106°
2026-05-06 20:37 52.20203 6.34337 36935 ft 467 kts 106°
2026-05-06 20:38 52.18537 6.44582 36923 ft 468 kts 107°
2026-05-06 20:38 52.16862 6.54818 36935 ft 467 kts 107°
2026-05-06 20:39 52.15180 6.65044 36932 ft 468 kts 107°
2026-05-06 20:39 52.13498 6.75208 36926 ft 468 kts 107°
2026-05-06 20:40 52.11946 6.85502 36929 ft 469 kts 104°
2026-05-06 20:40 52.10576 6.95871 36918 ft 469 kts 104°
2026-05-06 20:41 52.09198 7.06237 36929 ft 469 kts 104°
2026-05-06 20:41 52.07779 7.16592 36923 ft 469 kts 104°
2026-05-06 20:42 52.06335 7.26939 36922 ft 470 kts 104°
2026-05-06 20:42 52.04878 7.37290 36902 ft 470 kts 105°
2026-05-06 20:43 52.03413 7.47623 36908 ft 469 kts 105°
2026-05-06 20:43 52.01951 7.57881 36906 ft 470 kts 105°
2026-05-06 20:44 52.00471 7.68195 36905 ft 469 kts 105°
2026-05-06 20:44 51.98980 7.78516 36903 ft 469 kts 105°
2026-05-06 20:45 51.97481 7.88815 36889 ft 469 kts 105°
2026-05-06 20:45 51.95975 7.99101 36896 ft 469 kts 105°
2026-05-06 20:46 51.94472 8.09304 36890 ft 469 kts 105°
2026-05-06 20:46 51.92949 8.19573 36891 ft 468 kts 105°
2026-05-06 20:47 51.91418 8.29820 36879 ft 468 kts 106°
2026-05-06 20:47 51.89878 8.40064 36879 ft 468 kts 106°
2026-05-06 20:48 51.88332 8.50285 36880 ft 467 kts 106°
2026-05-06 20:48 51.86788 8.60429 36873 ft 467 kts 106°
2026-05-06 20:49 51.85225 8.70633 36873 ft 467 kts 106°
2026-05-06 20:49 51.83652 8.80834 36857 ft 468 kts 107°
2026-05-06 20:50 51.82070 8.91030 36866 ft 468 kts 107°
2026-05-06 20:50 51.80490 9.01154 36852 ft 468 kts 107°
2026-05-06 20:51 51.78891 9.11331 36850 ft 467 kts 107°
2026-05-06 20:51 51.77283 9.21508 36843 ft 468 kts 107°
2026-05-06 20:52 51.75666 9.31675 36838 ft 468 kts 107°
2026-05-06 20:52 51.74040 9.41833 36841 ft 468 kts 107°
2026-05-06 20:53 51.72417 9.51914 36833 ft 468 kts 107°
2026-05-06 20:53 51.70772 9.62072 36835 ft 468 kts 107°
2026-05-06 20:54 51.69119 9.72219 36813 ft 468 kts 108°
2026-05-06 20:54 51.67458 9.82352 36817 ft 468 kts 108°
2026-05-06 20:55 51.65799 9.92411 36826 ft 468 kts 108°
2026-05-06 20:55 51.64121 10.02528 36823 ft 468 kts 108°
2026-05-06 20:56 51.62433 10.12644 36822 ft 468 kts 108°
2026-05-06 20:56 51.60738 10.22744 36814 ft 468 kts 109°
2026-05-06 20:57 51.59322 10.31137 36825 ft 468 kts 109°
2026-05-06 20:57 51.57330 10.42878 36824 ft 468 kts 109°
2026-05-06 20:58 51.55607 10.52973 36817 ft 469 kts 109°
2026-05-06 20:58 51.54167 10.61370 36823 ft 469 kts 109°
2026-05-06 20:59 51.52444 10.71479 36815 ft 470 kts 109°
2026-05-06 20:59 51.50463 10.83241 36817 ft 470 kts 109°
2026-05-06 21:00 51.49026 10.91723 36824 ft 470 kts 109°
2026-05-06 21:00 51.47312 11.01774 36813 ft 470 kts 109°
2026-05-06 21:01 51.45573 11.11890 36790 ft 471 kts 110°
2026-05-06 21:01 51.43828 11.21993 36812 ft 470 kts 110°
2026-05-06 21:02 51.42077 11.32071 36814 ft 469 kts 110°
2026-05-06 21:02 51.40321 11.42130 36815 ft 469 kts 110°
2026-05-06 21:03 51.38237 11.51893 36820 ft 464 kts 117°
2026-05-06 21:03 51.35735 11.61404 36802 ft 463 kts 118°
2026-05-06 21:04 51.33220 11.70890 36811 ft 463 kts 117°
2026-05-06 21:04 51.30745 11.80396 36808 ft 463 kts 117°
2026-05-06 21:05 51.28284 11.89908 36810 ft 463 kts 117°
2026-05-06 21:05 51.25834 11.99351 36776 ft 463 kts 117°
2026-05-06 21:06 51.23361 12.08835 36796 ft 463 kts 117°
2026-05-06 21:06 51.20876 12.18316 36806 ft 463 kts 117°
2026-05-06 21:07 51.18381 12.27797 36802 ft 464 kts 118°
2026-05-06 21:07 51.15893 12.37219 36805 ft 464 kts 118°
2026-05-06 21:08 51.13379 12.46698 36788 ft 465 kts 118°
2026-05-06 21:08 51.10859 12.56166 36798 ft 464 kts 118°
2026-05-06 21:09 51.08488 12.65740 36799 ft 468 kts 112°
2026-05-06 21:09 51.06709 12.75640 36803 ft 469 kts 110°
2026-05-06 21:10 51.04976 12.85644 36811 ft 469 kts 110°
2026-05-06 21:10 51.03182 12.95590 36811 ft 468 kts 111°
2026-05-06 21:11 51.01352 13.05509 36812 ft 467 kts 111°
2026-05-06 21:11 50.99528 13.15330 36813 ft 467 kts 111°
2026-05-06 21:12 50.97689 13.25209 36814 ft 467 kts 111°
2026-05-06 21:12 50.95852 13.35089 36796 ft 467 kts 111°
2026-05-06 21:13 50.94211 13.44447 36805 ft 468 kts 111°
2026-05-06 21:13 50.92401 13.54506 36806 ft 467 kts 112°
2026-05-06 21:14 50.90534 13.64355 36808 ft 467 kts 112°
2026-05-06 21:14 50.88673 13.74221 36799 ft 468 kts 112°
2026-05-06 21:15 50.86822 13.84103 36802 ft 468 kts 112°
2026-05-06 21:15 50.84943 13.93895 36795 ft 466 kts 116°
2026-05-06 21:16 50.81820 14.02622 36800 ft 451 kts 134°
2026-05-06 21:16 50.77431 14.09497 36803 ft 443 kts 144°
2026-05-06 21:17 50.72824 14.15987 36756 ft 444 kts 143°
2026-05-06 21:17 50.68244 14.22504 36774 ft 444 kts 143°
2026-05-06 21:18 50.63703 14.29008 36793 ft 444 kts 143°
2026-05-06 21:18 50.59128 14.35556 36791 ft 445 kts 143°
2026-05-06 21:19 50.54539 14.42104 36782 ft 446 kts 143°
2026-05-06 21:19 50.50015 14.48543 36775 ft 446 kts 143°
2026-05-06 21:20 50.45418 14.55073 36777 ft 446 kts 143°
2026-05-06 21:20 50.40952 14.61762 36772 ft 447 kts 141°
2026-05-06 21:21 50.36507 14.68578 36780 ft 447 kts 141°
2026-05-06 21:21 50.32050 14.75367 36788 ft 446 kts 141°
2026-05-06 21:22 50.27586 14.82108 36790 ft 446 kts 141°
2026-05-06 21:22 50.23146 14.88781 36759 ft 446 kts 141°
2026-05-06 21:23 50.18674 14.95481 36777 ft 446 kts 142°
2026-05-06 21:23 50.14190 15.02181 36772 ft 447 kts 142°
2026-05-06 21:24 50.09686 15.08892 36775 ft 449 kts 142°
2026-05-06 21:24 50.05167 15.15610 36771 ft 450 kts 142°
2026-05-06 21:25 50.00660 15.22291 36736 ft 451 kts 142°
2026-05-06 21:25 49.96108 15.29021 36763 ft 452 kts 142°
2026-05-06 21:26 49.91539 15.35756 36768 ft 454 kts 142°
2026-05-06 21:26 49.86952 15.42500 36769 ft 455 kts 142°
2026-05-06 21:27 49.82351 15.49247 36758 ft 456 kts 142°
2026-05-06 21:27 49.77771 15.55944 36747 ft 456 kts 142°
2026-05-06 21:28 49.73154 15.62678 36754 ft 456 kts 142°
2026-05-06 21:28 49.68532 15.69400 36759 ft 456 kts 142°
2026-05-06 21:29 49.63904 15.76113 36755 ft 456 kts 142°
2026-05-06 21:29 49.61577 15.79477 36344 ft 462 kts 142°
2026-05-06 21:29 49.59242 15.82852 35822 ft 458 kts 143°
2026-05-06 21:29 49.56922 15.86204 35203 ft 457 kts 143°
2026-05-06 21:30 49.54606 15.89544 34514 ft 456 kts 144°
2026-05-06 21:30 49.52323 15.92831 33884 ft 455 kts 144°
2026-05-06 21:30 49.50012 15.96152 33138 ft 455 kts 144°
2026-05-06 21:30 49.47705 15.99461 32419 ft 454 kts 144°
2026-05-06 21:31 49.45396 16.02772 31695 ft 454 kts 144°
2026-05-06 21:31 49.43084 16.06081 30954 ft 455 kts 143°
2026-05-06 21:31 49.41053 16.08984 30305 ft 455 kts 143°
2026-05-06 21:31 49.38746 16.12282 29785 ft 450 kts 143°
2026-05-06 21:32 49.36661 16.15261 29216 ft 446 kts 143°
2026-05-06 21:32 49.32166 16.21642 28098 ft 433 kts 145°
2026-05-06 21:32 49.29824 16.24331 27620 ft 420 kts 154°
2026-05-06 21:33 49.27278 16.26379 27134 ft 409 kts 160°
2026-05-06 21:33 49.24715 16.28236 26586 ft 405 kts 160°
2026-05-06 21:33 49.22179 16.30073 26078 ft 401 kts 160°
2026-05-06 21:33 49.19673 16.31898 25581 ft 398 kts 160°
2026-05-06 21:34 49.17220 16.33695 25085 ft 394 kts 160°
2026-05-06 21:34 49.14757 16.35507 24570 ft 392 kts 159°
2026-05-06 21:34 49.12312 16.37309 24079 ft 389 kts 159°
2026-05-06 21:34 49.09882 16.39101 23578 ft 387 kts 159°
2026-05-06 21:35 49.07465 16.40883 23007 ft 385 kts 159°
2026-05-06 21:35 49.05068 16.42650 22456 ft 382 kts 159°
2026-05-06 21:35 49.02685 16.44404 21938 ft 378 kts 159°
2026-05-06 21:35 49.00332 16.46135 21421 ft 375 kts 159°
2026-05-06 21:36 48.97992 16.47854 20925 ft 371 kts 159°
2026-05-06 21:36 48.95682 16.49549 20449 ft 368 kts 159°
2026-05-06 21:36 48.93416 16.51209 19968 ft 365 kts 159°
2026-05-06 21:36 48.91138 16.52876 19492 ft 362 kts 159°
2026-05-06 21:37 48.88872 16.54534 19002 ft 360 kts 159°
2026-05-06 21:37 48.86617 16.56181 18541 ft 358 kts 159°
2026-05-06 21:37 48.84373 16.57820 18063 ft 357 kts 159°
2026-05-06 21:37 48.82140 16.59448 17524 ft 355 kts 159°
2026-05-06 21:38 48.79917 16.61067 17019 ft 353 kts 159°
2026-05-06 21:38 48.77678 16.62503 16630 ft 345 kts 167°
2026-05-06 21:38 48.75370 16.63325 16415 ft 338 kts 172°
2026-05-06 21:38 48.73050 16.64023 16198 ft 351 kts 172°
2026-05-06 21:39 48.70629 16.64751 15952 ft 359 kts 172°
2026-05-06 21:39 48.68177 16.65515 15696 ft 359 kts 171°
2026-05-06 21:39 48.65747 16.66295 15445 ft 356 kts 171°
2026-05-06 21:39 48.63327 16.67085 15200 ft 354 kts 171°
2026-05-06 21:40 48.60925 16.67347 14832 ft 344 kts 191°
2026-05-06 21:40 48.58733 16.66101 14248 ft 333 kts 212°
2026-05-06 21:40 48.56908 16.64027 13665 ft 325 kts 224°
2026-05-06 21:40 48.55324 16.61644 13017 ft 319 kts 226°
2026-05-06 21:41 48.53865 16.59172 12363 ft 314 kts 232°
2026-05-06 21:41 48.52697 16.56467 11734 ft 310 kts 240°
2026-05-06 21:41 48.51826 16.53505 11106 ft 308 kts 249°
2026-05-06 21:41 48.51289 16.50394 10497 ft 306 kts 258°
2026-05-06 21:42 48.51094 16.47187 9893 ft 306 kts 267°
2026-05-06 21:42 48.51246 16.44009 9269 ft 306 kts 276°
2026-05-06 21:42 48.51746 16.40898 8628 ft 305 kts 288°
2026-05-06 21:42 48.52711 16.38047 8005 ft 303 kts 293°
2026-05-06 21:43 48.53227 16.35027 7356 ft 296 kts 269°
2026-05-06 21:43 48.52829 16.32033 6766 ft 291 kts 245°
2026-05-06 21:43 48.51634 16.29655 6176 ft 291 kts 220°
2026-05-06 21:43 48.49842 16.28280 5550 ft 293 kts 196°
2026-05-06 21:44 48.47817 16.28256 5156 ft 292 kts 169°
2026-05-06 21:44 48.46043 16.29586 5021 ft 283 kts 143°
2026-05-06 21:44 48.44741 16.31708 4977 ft 269 kts 129°
2026-05-06 21:44 48.43726 16.34005 4966 ft 258 kts 126°
2026-05-06 21:45 48.42795 16.36245 4955 ft 246 kts 125°
2026-05-06 21:45 48.41886 16.38352 4969 ft 235 kts 128°
2026-05-06 21:45 48.40951 16.40362 4982 ft 234 kts 129°
2026-05-06 21:45 48.39996 16.42332 4984 ft 232 kts 132°
2026-05-06 21:46 48.38969 16.44147 4979 ft 229 kts 140°
2026-05-06 21:46 48.37804 16.45750 4993 ft 227 kts 142°
2026-05-06 21:46 48.36597 16.47256 4982 ft 223 kts 157°
2026-05-06 21:46 48.35183 16.47881 5012 ft 207 kts 173°
2026-05-06 21:47 48.33796 16.48457 4960 ft 206 kts 167°
2026-05-06 21:47 48.32415 16.49113 4713 ft 208 kts 169°
2026-05-06 21:47 48.31038 16.49729 4446 ft 205 kts 170°
2026-05-06 21:47 48.29681 16.50313 4178 ft 202 kts 171°
2026-05-06 21:48 48.28342 16.50882 3913 ft 198 kts 170°
2026-05-06 21:48 48.27045 16.51432 3644 ft 192 kts 171°
2026-05-06 21:48 48.25779 16.51970 3393 ft 183 kts 171°
2026-05-06 21:48 48.24583 16.52477 3159 ft 174 kts 171°
2026-05-06 21:49 48.23445 16.52957 2912 ft 163 kts 172°
2026-05-06 21:49 48.22391 16.53405 2746 ft 156 kts 173°
2026-05-06 21:49 48.21397 16.53829 2540 ft 142 kts 173°
2026-05-06 21:49 48.20492 16.54213 2363 ft 129 kts 174°
2026-05-06 21:50 48.19624 16.54577 2186 ft 129 kts 174°
2026-05-06 21:50 48.18768 16.54938 2021 ft 126 kts 173°
2026-05-06 21:50 48.17926 16.55295 1858 ft 126 kts 172°
2026-05-06 21:50 48.17085 16.55651 1698 ft 125 kts 170°
2026-05-06 21:51 48.16251 16.56003 1505 ft 125 kts 171°
2026-05-06 21:51 48.15404 16.56354 1282 ft 131 kts 168°
2026-05-06 21:51 48.14538 16.56706 1102 ft 128 kts 167°
2026-05-06 21:51 48.13695 16.57065 972 ft 128 kts 167°
2026-05-06 21:52 48.12835 16.57437 788 ft 127 kts 165°
2026-05-06 21:52 48.11986 16.57808 641 ft 128 kts 167°
2026-05-06 21:52 48.11198 16.58139 613 ft 103 kts 164°
2026-05-06 21:52 48.10651 16.58378 620 ft 52 kts 162°
2026-05-06 21:53 48.10424 16.58461 614 ft 15 kts 175°
2026-05-06 21:53 48.10321 16.58462 616 ft 15 kts 186°
2026-05-06 21:53 48.10225 16.58434 617 ft 14 kts 194°
2026-05-06 21:53 48.10135 16.58390 610 ft 13 kts 220°
2026-05-06 21:54 48.10177 16.58302 620 ft 14 kts 341°
2026-05-06 21:54 48.10296 16.58251 618 ft 23 kts 344°
2026-05-06 21:54 48.10464 16.58179 613 ft 25 kts 344°
2026-05-06 21:54 48.10627 16.58109 615 ft 24 kts 344°
2026-05-06 21:55 48.10781 16.58044 611 ft 23 kts 344°
2026-05-06 21:55 48.10927 16.57971 611 ft 22 kts 326°
2026-05-06 21:55 48.11035 16.57815 613 ft 21 kts 322°
2026-05-06 21:55 48.11170 16.57741 615 ft 21 kts 344°
2026-05-06 21:56 48.11306 16.57684 608 ft 20 kts 344°
2026-05-06 21:56 48.11438 16.57628 615 ft 19 kts 344°
2026-05-06 21:56 48.11551 16.57535 608 ft 19 kts 302°
2026-05-06 21:56 48.11608 16.57363 616 ft 18 kts 296°
2026-05-06 21:57 48.11639 16.57191 608 ft 18 kts 236°
2026-05-06 21:57 48.11546 16.57123 615 ft 13 kts 183°
2026-05-06 21:57 48.11462 16.57083 612 ft 13 kts 207°
2026-05-06 21:57 48.11440 16.57067 612 ft 0 kts 205°